Home > Weather > Kuwait City > Past weeks

Flag for Kuwait Weather for the Past 2 Weeks in Kuwait City, Kuwait

Now
82 °F

Clear.


Feels Like: 82 °F
Forecast: 71 / 85 °F
Wind: 10 mph from North

Location: Kuwait International Airport

Current Time: Apr 29, 2016 at 11:10:53 PM

Latest Report: Apr 29, 2016 at 10:00 PM


Visibility: 4 mi

Pressure: 29.83 "Hg

Humidity: 40%

Dew Point: 55 °F

Location of Kuwait CityLocation

Historic Weather in Kuwait City — Graph

°F

Kuwait City Temperature Yesterday

Maximum temperature yesterday: 106 °F (at 1:00 PM)
Minimum temperature yesterday: 72 °F (at 4:00 AM)
Average temperature yesterday: 88 °F

High & Low Weather Summary for the Past Weeks

 TemperatureHumidityPressure
High108 °F (Apr 26, 1:00 PM)68% (Apr 16, 4:00 AM)30.04 "Hg (Apr 16, 4:00 AM)
Low61 °F (Apr 22, 5:00 AM)7% (Apr 22, 1:00 PM)29.65 "Hg (Apr 24, 3:00 PM)
Average83 °F27%29.85 "Hg
* Reported Apr 14 10:00 PM — Apr 29 10:00 PM, Kuwait City, Weather by CustomWeather, © 2016

Note: Actual official high and low records may vary slightly from our data, if they occured in-between our weather recording intervals... More about our weather records

Advertising

Kuwait City Weather History for the Previous 24 Hours

Scroll right to see more
 ConditionsComfort  
Time TempWeatherWind HumidityBarometerVisibility
10:00 PM
Fri, Apr 29
82 °FClear.10 mph40%29.83 "Hg4 mi
9:00 PM84 °FClear.10 mph40%29.83 "Hg4 mi
8:00 PM86 °FClear.12 mph38%29.80 "Hg4 mi
7:00 PM88 °FHaze.12 mph31%29.80 "Hg3 mi
6:00 PM88 °FHaze.15 mph29%29.77 "Hg3 mi
5:00 PM90 °FHaze.17 mph26%29.77 "Hg3 mi
4:00 PM91 °FLow level haze.21 mph21%29.77 "Hg3 mi
3:00 PM95 °FLow level haze.24 mph16%29.77 "Hg1 mi
2:00 PM97 °FHaze.16 mph19%29.77 "Hg3 mi
1:00 PM100 °FHaze.12 mph17%29.74 "Hg3 mi
12:00 PM99 °FSunny.9 mph19%29.77 "Hg2 mi
11:00 AM99 °FHaze.13 mph19%29.77 "Hg2 mi
10:00 AM95 °FHaze.10 mph22%29.80 "Hg1 mi
9:00 AM93 °FHaze.12 mph21%29.77 "Hg2 mi
8:00 AM91 °FHaze.10 mph23%29.77 "Hg3 mi
7:00 AM90 °FHaze.10 mph22%29.77 "Hg3 mi
6:00 AM82 °FPartly sunny.5 mph26%29.74 "Hg4 mi
5:00 AM81 °FPassing clouds.9 mph26%29.71 "HgN/A
4:00 AM81 °FClear.No wind24%29.71 "Hg10 mi
3:00 AM82 °FPassing clouds.7 mph23%29.71 "HgN/A
2:00 AM82 °FClear.6 mph25%29.71 "Hg10 mi
1:00 AM82 °FClear.7 mph25%29.71 "Hg5 mi
12:00 AM84 °FClear.8 mph22%29.71 "Hg10 mi
11:00 PM
Thu, Apr 28
86 °FClear.8 mph20%29.71 "Hg10 mi
Weather by CustomWeather, © 2016

See weather overviewHow to use our weather pages